FW8528 Weather Reports


time (UTC)temp
C
wind
direction
speed
KPH
gust
KPH
rain 1hr
cm
rain 24hr
cm
rain mn
cm
humidity
%
barometer
mb
20260504214817 23 188 4.8 8.0 0.00 0.00 0.00 60 1010.3
20260504214314 22 82 4.8 8.0 0.00 0.00 0.00 59 1010.3
20260504213810 23 118 9.7 11.3 0.00 0.00 0.00 57 1010.6
20260504213306 23 244 0.0 1.6 0.00 0.00 0.00 58 1010.6
20260504212804 22 210 1.6 1.6 0.00 0.00 0.00 62 1010.6
20260504212300 23 101 6.4 8.0 0.00 0.00 0.00 58 1010.6
20260504211758 23 150 3.2 4.8 0.00 0.00 0.00 58 1010.6
20260504211254 23 204 3.2 3.2 0.00 0.00 0.00 57 1010.6
20260504210751 23 220 3.2 3.2 0.00 0.00 0.00 58 1010.6
20260504210249 23 167 3.2 4.8 0.00 0.00 0.00 58 1010.6
20260504205745 23 333 3.2 3.2 0.00 0.00 0.00 57 1010.6
20260504205243 23 37 1.6 1.6 0.00 0.00 0.00 59 1010.6
20260504204741 23 199 6.4 8.0 0.00 0.00 0.00 59 1010.6
20260504204239 23 244 1.6 3.2 0.00 0.00 0.00 61 1010.6
20260504203738 23 256 1.6 1.6 0.00 0.00 0.00 59 1010.6
20260504203235 22 170 4.8 4.8 0.00 0.00 0.00 59 1010.6
20260504202735 22 170 8.0 12.9 0.00 0.00 0.00 59 1010.6
20260504202233 22 253 1.6 1.6 0.00 0.00 0.00 60 1010.6
20260504201730 22 252 3.2 3.2 0.00 0.00 0.00 59 1010.6
20260504201227 23 221 3.2 3.2 0.00 0.00 0.00 59 1010.6
20260504200725 22 320 1.6 1.6 0.00 0.00 0.00 64 1010.6
20260504200220 22 248 3.2 3.2 0.00 0.00 0.00 62 1010.6
20260504195717 23 151 8.0 9.7 0.00 0.00 0.00 59 1010.6
20260504195213 23 180 3.2 3.2 0.00 0.00 0.00 62 1010.6
20260504194710 23 238 1.6 1.6 0.00 0.00 0.00 59 1010.6
20260504194206 22 107 1.6 4.8 0.00 0.00 0.00 61 1010.9
20260504193702 22 131 3.2 3.2 0.00 0.00 0.00 62 1010.9
20260504193200 21 127 4.8 4.8 0.00 0.00 0.00 63 1010.9
20260504192658 21 242 1.6 1.6 0.00 0.00 0.00 62 1010.9
20260504192156 21 167 3.2 4.8 0.00 0.00 0.00 67 1010.9
20260504191654 20 180 3.2 4.8 0.00 0.00 0.00 72 1010.9
20260504191150 21 143 3.2 3.2 0.00 0.00 0.00 67 1010.9
20260504190646 21 210 4.8 4.8 0.00 0.00 0.00 65 1010.9
20260504190143 21 165 3.2 3.2 0.00 0.00 0.00 66 1010.9
20260504185639 20 180 6.4 11.3 0.00 0.00 0.00 70 1011.3
20260504185136 20 220 1.6 1.6 0.00 0.00 0.00 70 1011.3
20260504184632 19 168 4.8 4.8 0.00 0.00 0.00 71 1011.3
20260504184127 20 221 4.8 4.8 0.00 0.00 0.00 70 1011.3
20260504183624 20 150 4.8 4.8 0.00 0.00 0.00 71 1011.3
20260504183122 20 131 6.4 8.0 0.00 0.00 0.00 69 1010.9
20260504182620 20 261 1.6 1.6 0.00 0.00 0.00 69 1010.9
20260504182117 20 25 1.6 3.2 0.00 0.00 0.00 70 1010.9
20260504181614 19 174 4.8 11.3 0.00 0.00 0.00 71 1010.9
20260504181112 19 182 0.0 1.6 0.00 0.00 0.00 72 1011.3
20260504180611 19 202 6.4 8.0 0.00 0.00 0.00 71 1011.3
20260504180109 20 261 1.6 1.6 0.00 0.00 0.00 70 1010.9
20260504175606 19 259 4.8 4.8 0.00 0.00 0.00 71 1010.9
20260504175103 18 175 3.2 3.2 0.00 0.00 0.00 72 1011.3
20260504174601 18 192 3.2 4.8 0.00 0.00 0.00 73 1011.3
20260504174057 18 232 1.6 1.6 0.00 0.00 0.00 73 1010.9
20260504173554 18 132 4.8 4.8 0.00 0.00 0.00 73 1010.9
20260504173052 18 267 4.8 8.0 0.00 0.00 0.00 72 1011.3
20260504172547 18 123 4.8 8.0 0.00 0.00 0.00 72 1010.9
20260504172044 18 176 4.8 4.8 0.00 0.00 0.00 73 1010.9
20260504171541 18 233 0.0 0.0 0.00 0.00 0.00 75 1010.6
20260504171038 18 175 3.2 3.2 0.00 0.00 0.00 75 1010.9
20260504170534 18 167 0.0 0.0 0.00 0.00 0.00 74 1010.6
20260504150918 12 246 0.0 0.0 0.00 0.00 0.00 91 1010.3
20260504150415 12 247 0.0 0.0 0.00 0.00 0.00 92 1010.3
20260504140841 11 253 0.0 0.0 0.00 0.00 0.00 94 1009.9
20260504140337 11 253 0.0 0.0 0.00 0.00 0.00 92 1009.9
20260504130806 11 253 0.0 0.0 0.00 0.00 0.00 89 1009.9
20260504130302 11 253 0.0 0.0 0.00 0.00 0.00 89 1009.9
20260504120225 11 244 0.0 0.0 0.00 0.00 0.00 90 1009.6
20260504110653 11 244 0.0 0.0 0.00 0.00 0.00 89 1009.6
20260504110149 11 244 0.0 0.0 0.00 0.00 0.00 89 1009.6
20260504100615 12 244 0.0 0.0 0.00 0.00 0.00 85 1009.6
20260504100113 12 244 0.0 0.0 0.00 0.00 0.00 86 1009.6
20260504081506 12 243 0.0 0.0 0.00 0.00 0.00 95 1009.6
20260504081001 12 243 0.0 0.0 0.00 0.00 0.00 98 1009.9
20260504080458 12 243 0.0 0.0 0.00 0.00 0.00 98 1009.9
20260504050311 16 242 0.0 0.0 0.00 0.00 0.00 86 1009.6
20260504045808 16 242 0.0 0.0 0.00 0.00 0.00 82 1009.6
20260504045304 15 243 1.6 1.6 0.00 0.00 0.00 76 1009.9
20260504044800 16 241 0.0 0.0 0.00 0.00 0.00 86 1009.6
20260504044257 16 241 0.0 0.0 0.00 0.00 0.00 78 1009.6
20260504043754 16 242 0.0 0.0 0.00 0.00 0.00 74 1009.9
20260504043251 16 241 0.0 0.0 0.00 0.00 0.00 76 1009.9
20260504042749 16 241 0.0 0.0 0.00 0.00 0.00 82 1009.6
20260504042245 16 242 0.0 0.0 0.00 0.00 0.00 73 1009.9
20260504041742 17 242 0.0 0.0 0.00 0.00 0.00 75 1009.6
20260504041238 17 242 0.0 0.0 0.00 0.00 0.00 70 1009.9
20260504040734 17 241 0.0 0.0 0.00 0.00 0.00 84 1009.6
20260504040232 17 241 0.0 0.0 0.00 0.00 0.00 83 1009.6
20260504035727 17 241 0.0 0.0 0.00 0.00 0.00 77 1009.6
20260504035225 17 241 0.0 0.0 0.00 0.00 0.00 69 1009.6
20260504034722 18 241 0.0 0.0 0.00 0.00 0.00 80 1009.6
20260504034219 18 241 0.0 0.0 0.00 0.00 0.00 79 1009.6
20260504033717 18 241 0.0 0.0 0.00 0.00 0.00 66 1009.6
20260504033214 19 241 0.0 0.0 0.00 0.00 0.00 73 1009.6
20260504032711 20 271 0.0 0.0 0.00 0.00 0.00 56 1009.6
20260504032208 20 267 0.0 0.0 0.00 0.00 0.00 56 1009.6
20260504031705 20 268 0.0 1.6 0.00 0.00 0.00 52 1009.6
20260504031202 21 279 0.0 0.0 0.00 0.00 0.00 52 1009.6
20260504030658 21 217 1.6 1.6 0.00 0.00 0.00 51 1009.6
20260504030155 21 285 0.0 1.6 0.00 0.00 0.00 52 1009.6
20260504025652 21 259 1.6 1.6 0.00 0.00 0.00 53 1009.6
20260504025148 21 247 0.0 0.0 0.00 0.00 0.00 50 1009.6
20260504024646 20 292 0.0 1.6 0.00 0.00 0.00 60 1009.6
20260504024142 21 258 0.0 0.0 0.00 0.00 0.00 59 1009.2
20260504023639 21 240 0.0 0.0 0.00 0.00 0.00 69 1009.6
20260504023135 21 258 0.0 0.0 0.00 0.00 0.00 57 1009.6
20260504022631 21 254 0.0 0.0 0.00 0.00 0.00 53 1009.2
20260504022127 22 265 0.0 0.0 0.00 0.00 0.00 54 1009.2
20260504021626 22 253 0.0 1.6 0.00 0.00 0.00 53 1009.6
20260504021122 22 241 0.0 0.0 0.00 0.00 0.00 51 1009.6
20260504020619 22 257 0.0 0.0 0.00 0.00 0.00 51 1009.2
20260504020115 23 257 0.0 0.0 0.00 0.00 0.00 52 1009.6
20260504015612 23 266 0.0 0.0 0.00 0.00 0.00 49 1009.6
20260504015108 23 258 0.0 0.0 0.00 0.00 0.00 49 1009.6
20260504014604 24 258 0.0 0.0 0.00 0.00 0.00 46 1009.6
20260504014101 25 259 0.0 0.0 0.00 0.00 0.00 47 1009.6
20260504013559 25 262 0.0 0.0 0.00 0.00 0.00 44 1009.6
20260504013055 26 251 0.0 0.0 0.00 0.00 0.00 40 1009.6
20260504012553 26 257 0.0 0.0 0.00 0.00 0.00 44 1009.9
20260504012051 27 266 0.0 1.6 0.00 0.00 0.00 41 1009.9
20260504011547 27 233 0.0 1.6 0.00 0.00 0.00 41 1009.6
20260504011043 26 225 0.0 1.6 0.00 0.00 0.00 40 1009.9
20260504010539 26 245 0.0 0.0 0.00 0.00 0.00 36 1009.9
20260504010035 27 257 1.6 1.6 0.00 0.00 0.00 39 1009.9
20260504005532 27 227 1.6 4.8 0.00 0.00 0.00 35 1009.9
20260504005030 27 206 1.6 1.6 0.00 0.00 0.00 42 1009.6
20260504004527 27 233 0.0 1.6 0.00 0.00 0.00 38 1010.3
20260504004024 27 239 0.0 1.6 0.00 0.00 0.00 35 1009.9
20260504003520 28 277 1.6 3.2 0.00 0.00 0.00 34 1009.9
20260504003017 27 229 0.0 0.0 0.00 0.00 0.00 37 1009.9
20260504002514 27 228 1.6 1.6 0.00 0.00 0.00 38 1009.9
20260504002012 28 208 0.0 1.6 0.00 0.00 0.00 36 1009.9
20260504001509 28 249 1.6 3.2 0.00 0.00 0.00 34 1009.9
20260504001005 28 232 1.6 1.6 0.00 0.00 0.00 33 1009.9
20260504000503 28 228 1.6 1.6 0.00 0.00 0.00 32 1010.3
20260504000000 28 266 1.6 1.6 0.00 0.00 0.00 31 1009.9
20260503235458 28 273 1.6 1.6 0.00 0.00 0.00 31 1010.3
20260503234954 28 223 1.6 1.6 0.00 0.00 0.00 34 1010.3
20260503234452 28 177 1.6 3.2 0.00 0.00 0.00 41 1010.3
20260503233950 28 218 1.6 3.2 0.00 0.00 0.00 32 1010.3
20260503233446 28 176 4.8 4.8 0.00 0.00 0.00 34 1010.3
20260503232943 28 164 3.2 3.2 0.00 0.00 0.00 37 1010.3
20260503232439 28 244 3.2 4.8 0.00 0.00 0.00 33 1010.6
20260503231937 28 150 3.2 3.2 0.00 0.00 0.00 36 1010.6
20260503231435 28 244 1.6 1.6 0.00 0.00 0.00 36 1010.6
20260503230931 29 243 3.2 3.2 0.00 0.00 0.00 32 1010.6
20260503230428 28 253 1.6 1.6 0.00 0.00 0.00 34 1010.6
20260503225925 28 197 4.8 4.8 0.00 0.00 0.00 34 1010.6
20260503225422 29 213 4.8 8.0 0.00 0.00 0.00 35 1010.6
20260503224918 30 216 3.2 3.2 0.00 0.00 0.00 32 1010.9
20260503224415 29 230 0.0 0.0 0.00 0.00 0.00 32 1010.9
20260503223912 29 142 3.2 4.8 0.00 0.00 0.00 35 1011.3
20260503223410 29 215 3.2 3.2 0.00 0.00 0.00 32 1011.3
20260503222910 29 216 6.4 8.0 0.00 0.00 0.00 30 1011.3
20260503222409 29 233 4.8 8.0 0.00 0.00 0.00 35 1011.3
20260503221907 28 258 6.4 8.0 0.00 0.00 0.00 31 1011.3
20260503221406 28 274 4.8 4.8 0.00 0.00 0.00 32 1010.9
20260503220901 28 219 1.6 1.6 0.00 0.00 0.00 32 1011.3
20260503220358 29 235 3.2 4.8 0.00 0.00 0.00 33 1011.3
20260503215855 28 200 3.2 3.2 0.00 0.00 0.00 35 1011.3
20260503215352 27 232 1.6 1.6 0.00 0.00 0.00 36 1011.3